Location: Taylor Dark Sky Site
(39.1017°N, 87.9564°W)
Time: 16:46:06
(UTC-06:00)

Amateur Radio Satellites - All Passes

Search period start: 27 February 2017 16:16
Search period end: 28 February 2017 16:16
Location: Taylor Dark Sky Site, 39.1017°N, 87.9564°W

Satellite Date Start Highest point End Downlink Frequencies (MHz)
Time Altitude Azimuth
CUBESAT XI-V 27 Feb 16:22:07 16:26:35 48° 99° (E) 16:31:01 437.345
NO-84 27 Feb 16:29:23 16:32:21 36° 323° (NW) 16:35:35 435.350 FM
KAITUO 1B 27 Feb 16:33:23 16:36:09 19° 69° (ENE) 16:38:54 145.475/437.950
XW-2F 27 Feb 16:41:43 16:45:03 29° 71° (ENE) 16:48:24 145.980 - 146.000
CUTE-I 27 Feb 16:46:19 16:51:15 40° 70° (ENE) 16:56:14 437.470
XW-2D 27 Feb 16:47:41 16:51:14 36° 73° (ENE) 16:54:48 145.860 - 145.880
XW-2B 27 Feb 16:52:43 16:56:20 40° 73° (ENE) 16:59:58 145.730 - 145.750
MOZHAYETS 4 27 Feb 16:55:12 16:57:16 13° 297° (WNW) 16:59:20
XW-2C 27 Feb 17:01:19 17:05:04 53° 75° (ENE) 17:08:51 145.795 - 145.815
NUDT-PHONESAT 27 Feb 17:04:13 17:07:49 45° 74° (ENE) 17:11:27 437.300
KKS-1 27 Feb 17:05:57 17:10:00 34° 290° (WNW) 17:14:02 437.445
M-CUBED/EXP-1 PRIME 27 Feb 17:08:39 17:12:24 43° 105° (ESE) 17:16:25 437.505
LilacSat-2 27 Feb 17:20:47 17:24:39 81° 256° (WSW) 17:28:34 437.200
PCSat 27 Feb 17:22:31 17:25:06 13° 318° (NW) 17:27:41 145.827
HO-68 27 Feb 17:22:45 17:28:31 27° 61° (ENE) 17:34:17 435.675
STARS 27 Feb 17:32:46 17:36:54 39° 289° (WNW) 17:41:01 437.465
DOVE 4 27 Feb 17:35:03 17:39:05 53° 260° (W) 17:43:12 437.250
XW-2A 27 Feb 17:38:00 17:40:28 19° 69° (ENE) 17:42:57 145.665 - 145.685
CUBEBUG 2 27 Feb 17:53:45 17:55:20 12° 62° (ENE) 17:56:56 437.445
SEEDS 27 Feb 17:59:46 18:02:41 18° 68° (ENE) 18:05:37 437.485
RS-15 27 Feb 18:00:01 18:11:45 57° 310° (NW) 18:23:55 29.354- 29.394
CUBESAT XI-V 27 Feb 18:00:44 18:03:32 16° 295° (WNW) 18:06:20 437.345
KAITUO 1B 27 Feb 18:06:45 18:09:59 26° 264° (W) 18:13:15 145.475/437.950
XW-2F 27 Feb 18:16:34 18:19:12 18° 266° (W) 18:21:53 145.980 - 146.000
XW-2D 27 Feb 18:23:26 18:25:33 14° 268° (W) 18:27:41 145.860 - 145.880
UWE-3 27 Feb 18:24:24 18:27:07 16° 65° (ENE) 18:29:52 435.000/436.395/437.385
CUTE-I 27 Feb 18:27:08 18:31:24 24° 265° (W) 18:35:42 437.470
XW-2B 27 Feb 18:28:57 18:30:42 13° 268° (W) 18:32:29 145.730 - 145.750
ZACube-1 27 Feb 18:40:01 18:42:17 14° 64° (ENE) 18:44:34 437.345
NUDT-PHONESAT 27 Feb 18:41:02 18:42:00 11° 269° (W) 18:42:57 437.300
CUTE 1.7 + AOD 2 27 Feb 18:41:27 18:45:44 85° 81° (E) 18:50:02 437.475
M-CUBED/EXP-1 PRIME 27 Feb 18:44:19 18:46:35 15° 297° (WNW) 18:48:57 437.505
HO-68 27 Feb 19:08:43 19:15:45 58° 258° (WSW) 19:22:50 435.675
XW-2A 27 Feb 19:10:29 19:13:06 21° 265° (W) 19:15:46 145.665 - 145.685
AAUSAT CUBESAT 2 27 Feb 19:15:16 19:19:23 65° 75° (ENE) 19:23:29 437.432
AO-73 27 Feb 19:24:45 19:28:51 37° 71° (ENE) 19:33:01 145.935
STRAND 1 27 Feb 19:26:45 19:31:56 85° 285° (WNW) 19:37:05 437.568
CUBEBUG 2 27 Feb 19:26:51 19:31:16 70° 259° (W) 19:35:53 437.445
Oscar 11 27 Feb 19:28:21 19:32:17 34° 71° (ENE) 19:36:13 .
SEEDS 27 Feb 19:34:13 19:38:07 35° 263° (W) 19:42:00 437.485
SO-50 27 Feb 19:51:17 19:52:30 11° 107° (ESE) 19:53:42 436.795
UWE-3 27 Feb 19:58:46 20:03:06 49° 261° (W) 20:07:34 435.000/436.395/437.385
YUBILEINY 27 Feb 20:10:35 20:18:33 37° 73° (ENE) 20:26:24 435.215
ZACube-1 27 Feb 20:13:37 20:18:01 58° 260° (W) 20:22:32 437.345
RS-15 27 Feb 20:18:46 20:27:55 23° 340° (NNW) 20:37:11 29.354- 29.394
DELFI C3 27 Feb 20:24:30 20:28:15 43° 73° (ENE) 20:32:00 145.870
FO-29 27 Feb 20:57:09 20:59:57 12° 84° (E) 21:02:40 435.910
AO-73 27 Feb 21:01:55 21:05:10 20° 267° (W) 21:08:28 145.935
Oscar 11 27 Feb 21:05:19 21:08:28 19° 266° (W) 21:11:38 .
STRAND 1 27 Feb 21:09:20 21:10:16 10° 301° (WNW) 21:11:12 437.568
PRISM 27 Feb 21:10:45 21:14:45 52° 100° (E) 21:18:44 437.425
NO-84 27 Feb 21:26:46 21:29:24 17° 27° (NNE) 21:32:09 435.350 FM
SO-50 27 Feb 21:27:38 21:32:20 77° 302° (WNW) 21:36:58 436.795
JUGNU 27 Feb 21:39:30 21:40:44 11° 181° (S) 21:41:59 437.505
ESTCUBE 1 27 Feb 21:52:06 21:56:02 31° 70° (ENE) 21:59:59 437.505/2401.250
LO-87 27 Feb 21:52:08 21:55:35 56° 75° (ENE) 21:59:04 145.935 - 145.965
DELFI C3 27 Feb 22:01:30 22:03:15 13° 268° (W) 22:04:59 145.870
O/OREOS (USA 219) 27 Feb 22:05:09 22:09:36 74° 293° (WNW) 22:14:07 437.305
VELOX 1 27 Feb 22:07:08 22:09:32 15° 64° (ENE) 22:11:56 145.980
YUBILEINY 27 Feb 22:07:17 22:15:24 45° 272° (W) 22:23:29 435.215
TIGRISAT 27 Feb 22:10:22 22:15:05 86° 282° (WNW) 22:19:42 435.000
UNISAT 6 27 Feb 22:10:56 22:15:39 78° 284° (WNW) 22:20:16 437.425
EO-79 27 Feb 22:37:15 22:39:52 16° 93° (E) 22:42:28 145.935-145.965
RS-15 27 Feb 22:37:44 22:46:48 22° 17° (NNE) 22:55:43 29.354- 29.394
FO-29 27 Feb 22:38:39 22:46:14 80° 103° (ESE) 22:52:58 435.910
PCSat 27 Feb 22:43:34 22:45:20 11° 40° (NE) 22:47:05 145.827
AIST 2D 27 Feb 22:44:45 22:47:55 30° 97° (E) 22:51:04 435.315
PRISM 27 Feb 22:47:53 22:49:34 12° 296° (WNW) 22:51:14 437.425
NANOSAT C BR1 27 Feb 22:51:53 22:55:10 21° 94° (E) 22:58:25 145.865
POLYITAN 1 27 Feb 22:54:53 22:58:28 25° 95° (E) 23:02:00 437.675
QB50P2 27 Feb 22:57:50 23:01:36 29° 96° (E) 23:05:20 145.880/145.840
NO-84 27 Feb 23:03:29 23:07:35 82° 41° (NE) 23:11:57 435.350 FM
SO-50 27 Feb 23:11:51 23:13:33 12° 321° (NW) 23:15:15 436.795
DX 1 27 Feb 23:23:33 23:27:37 42° 72° (ENE) 23:31:43 434.975-435.025
SPROUT 27 Feb 23:27:52 23:32:06 90° 169° (S) 23:36:24 437.525
ESTCUBE 1 27 Feb 23:29:13 23:32:49 23° 265° (W) 23:36:26 437.505/2401.250
UKube-1 27 Feb 23:30:05 23:34:00 35° 70° (ENE) 23:37:55 .
VELOX 1 27 Feb 23:41:17 23:45:32 50° 260° (W) 23:49:49 145.980
50 SAT 27 Feb 23:41:50 23:45:18 64° 259° (W) 23:48:46 437.505
DUCHIFAT 1 27 Feb 23:57:22 00:01:38 73° 284° (WNW) 00:05:52 145.980
EO-79 28 Feb 00:11:46 00:15:48 41° 288° (WNW) 00:19:48 145.935-145.965
AIST 2D 28 Feb 00:18:51 00:20:52 15° 292° (WNW) 00:22:53 435.315
PCSat 28 Feb 00:24:24 00:29:48 65° 60° (ENE) 00:35:11 145.827
FO-29 28 Feb 00:25:03 00:30:14 21° 303° (WNW) 00:35:07 435.910
NANOSAT C BR1 28 Feb 00:27:08 00:30:53 30° 290° (WNW) 00:34:37 145.865
POLYITAN 1 28 Feb 00:30:35 00:34:10 26° 291° (WNW) 00:37:43 437.675
SRMSAT 28 Feb 00:32:09 00:33:42 11° 183° (S) 00:35:13 437.500
QB50P2 28 Feb 00:33:52 00:37:13 23° 292° (WNW) 00:40:33 145.880/145.840
ITUPSAT 1 28 Feb 00:41:41 00:44:37 16° 63° (ENE) 00:47:33 437.325
BUGSAT 1 28 Feb 00:42:42 00:46:56 65° 285° (WNW) 00:51:08 437.445
NO-84 28 Feb 00:42:54 00:44:53 13° 238° (WSW) 00:46:54 435.350 FM
Gurwin Techsat 1B 28 Feb 00:44:39 00:48:17 18° 93° (E) 00:51:53 435.225
BEESAT 28 Feb 00:45:57 00:49:10 18° 64° (ENE) 00:52:24 436.000
RS-15 28 Feb 00:51:11 01:03:13 53° 48° (NE) 01:14:43 29.354- 29.394
DX 1 28 Feb 01:01:25 01:04:00 15° 267° (W) 01:06:35 434.975-435.025
UKube-1 28 Feb 01:07:07 01:10:06 18° 266° (W) 01:13:06 .
Oscar 19 28 Feb 01:14:43 01:19:49 66° 102° (ESE) 01:24:54 437.125/150
AO-7 28 Feb 01:44:19 01:47:10 12° 88° (E) 01:50:01 .
ITAMSAT 1 28 Feb 01:56:35 01:59:27 15° 91° (E) 02:02:20 435.822/435.867
PCSat 28 Feb 02:09:24 02:12:36 16° 256° (WSW) 02:15:47 145.827
MOZHAYETS 4 28 Feb 02:16:29 02:20:59 52° 73° (ENE) 02:25:30
ITUPSAT 1 28 Feb 02:17:16 02:21:58 54° 259° (W) 02:26:42 437.325
BEESAT 28 Feb 02:21:57 02:26:33 47° 260° (W) 02:31:12 436.000
Gurwin Techsat 1B 28 Feb 02:23:20 02:28:30 52° 288° (WNW) 02:33:39 435.225
KKS-1 28 Feb 02:27:31 02:30:25 17° 65° (ENE) 02:33:19 437.445
STARS 28 Feb 02:53:42 02:56:05 15° 64° (ENE) 02:58:30 437.465
Oscar 19 28 Feb 02:55:42 02:58:34 15° 298° (WNW) 03:01:26 437.125/150
RS-15 28 Feb 03:04:10 03:15:37 49° 251° (WSW) 03:26:37 29.354- 29.394
AO-85 28 Feb 03:10:14 03:14:49 74° 120° (ESE) 03:19:06 145.980
CUBESAT XI-V 28 Feb 03:24:04 03:28:26 42° 72° (ENE) 03:32:49 437.345
AO-7 28 Feb 03:32:52 03:41:12 74° 106° (ESE) 03:49:28 .
ITAMSAT 1 28 Feb 03:34:08 03:39:19 63° 287° (WNW) 03:44:28 435.822/435.867
M-CUBED/EXP-1 PRIME 28 Feb 03:54:31 03:57:34 38° 68° (ENE) 04:00:38 437.505
MOZHAYETS 4 28 Feb 03:55:51 03:58:25 15° 269° (W) 04:00:59
KKS-1 28 Feb 04:02:27 04:06:38 42° 261° (W) 04:10:51 437.445
BEESAT 3 28 Feb 04:10:02 04:12:33 17° 110° (ESE) 04:15:05 437.485
SO-50 28 Feb 04:22:57 04:23:14 10° 37° (NE) 04:23:31 436.795
STARS 28 Feb 04:27:45 04:31:59 50° 260° (W) 04:36:16 437.465
AO-85 28 Feb 04:53:25 04:55:38 14° 316° (NW) 04:57:48 145.980
BEESAT 2 28 Feb 04:54:36 04:57:35 21° 112° (ESE) 05:00:38 435.950
LilacSat-2 28 Feb 04:57:16 04:58:36 11° 91° (E) 04:59:56 437.200
CUBESAT XI-V 28 Feb 05:02:47 05:05:58 18° 267° (W) 05:09:09 437.345
STRAND 1 28 Feb 05:05:07 05:07:56 15° 62° (ENE) 05:10:43 437.568
CUTE-I 28 Feb 05:05:25 05:08:55 17° 92° (E) 05:12:24 437.470
AO-7 28 Feb 05:26:47 05:33:11 26° 304° (NW) 05:39:34 .
DOVE 4 28 Feb 05:33:46 05:38:23 43° 99° (E) 05:43:13 437.250
KAITUO 1B 28 Feb 05:38:50 05:42:10 29° 97° (E) 05:45:27 145.475/437.950
BEESAT 3 28 Feb 05:46:11 05:49:50 37° 307° (NW) 05:53:33 437.485
XW-2F 28 Feb 05:48:35 05:52:17 48° 99° (E) 05:55:56 145.980 - 146.000
XW-2D 28 Feb 05:55:07 05:58:55 64° 101° (E) 06:02:40 145.860 - 145.880
ISS 28 Feb 05:55:31 05:58:32 34° 135° (SE) 06:01:34 437.550
SO-50 28 Feb 06:00:05 06:04:34 67° 56° (ENE) 06:09:01 436.795
XW-2B 28 Feb 06:00:14 06:04:03 72° 100° (E) 06:07:50 145.730 - 145.750
XW-2C 28 Feb 06:09:01 06:12:51 85° 285° (WNW) 06:16:38 145.795 - 145.815
NUDT-PHONESAT 28 Feb 06:09:34 06:13:20 78° 101° (ESE) 06:17:03 437.300
Tancredo 1 28 Feb 06:13:02 06:16:13 57° 137° (SE) 06:19:25 437.200
CUTE 1.7 + AOD 2 28 Feb 06:28:43 06:31:16 16° 92° (E) 06:33:48 437.475
LilacSat-2 28 Feb 06:29:27 06:33:06 43° 286° (WNW) 06:36:43 437.200
BEESAT 2 28 Feb 06:31:38 06:35:10 31° 308° (NW) 06:38:47 435.950
XW-2A 28 Feb 06:33:07 06:35:56 23° 96° (E) 06:38:43 145.665 - 145.685
O/OREOS (USA 219) 28 Feb 06:37:58 06:41:04 18° 57° (ENE) 06:44:11 437.305
HO-68 28 Feb 06:38:02 06:44:09 30° 96° (E) 06:50:12 435.675
STRAND 1 28 Feb 06:41:23 06:46:30 68° 258° (WSW) 06:51:39 437.568
CUTE-I 28 Feb 06:44:01 06:49:17 56° 288° (WNW) 06:54:31 437.470
AAUSAT CUBESAT 2 28 Feb 07:01:09 07:02:00 11° 90° (E) 07:02:51 437.432
DOVE 4 28 Feb 07:12:15 07:15:47 21° 292° (WNW) 07:19:28 437.250
KAITUO 1B 28 Feb 07:13:29 07:15:57 17° 292° (WNW) 07:18:23 145.475/437.950
SEEDS 28 Feb 07:18:49 07:22:43 38° 98° (E) 07:26:35 437.485
CUBEBUG 2 28 Feb 07:19:05 07:23:11 28° 95° (E) 07:27:13 437.445
XW-2F 28 Feb 07:24:47 07:25:58 11° 295° (WNW) 07:27:09 145.980 - 146.000
ISS 28 Feb 07:32:08 07:35:01 27° 332° (NNW) 07:37:55 437.550
SO-50 28 Feb 07:42:50 07:44:25 12° 253° (WSW) 07:46:01 436.795
UWE-3 28 Feb 07:49:31 07:53:49 37° 97° (E) 07:58:02 435.000/436.395/437.385
Tancredo 1 28 Feb 07:50:10 07:52:41 20° 335° (NNW) 07:55:13 437.200
PRISM 28 Feb 07:58:59 08:02:35 31° 71° (ENE) 08:06:12 437.425
CUTE 1.7 + AOD 2 28 Feb 08:03:20 08:07:15 39° 288° (WNW) 08:11:10 437.475
ZACube-1 28 Feb 08:03:24 08:07:23 30° 96° (E) 08:11:17 437.345
XW-2A 28 Feb 08:06:08 08:08:32 18° 291° (WNW) 08:10:56 145.665 - 145.685
O/OREOS (USA 219) 28 Feb 08:16:20 08:20:44 46° 254° (WSW) 08:25:07 437.305
HO-68 28 Feb 08:25:13 08:32:04 50° 292° (WNW) 08:38:52 435.675
AAUSAT CUBESAT 2 28 Feb 08:33:46 08:37:47 55° 285° (WNW) 08:41:47 437.432
FO-29 28 Feb 08:48:16 08:54:43 35° 64° (ENE) 09:01:36 435.910
AO-73 28 Feb 08:49:31 08:54:05 90° 173° (S) 08:58:30 145.935
Oscar 11 28 Feb 08:52:05 08:56:26 83° 103° (ESE) 09:00:44 .
SEEDS 28 Feb 08:55:26 08:58:05 17° 293° (WNW) 09:00:44 437.485
CUBEBUG 2 28 Feb 08:55:39 08:59:42 28° 291° (WNW) 09:03:41 437.445
TIGRISAT 28 Feb 09:07:20 09:11:49 71° 75° (ENE) 09:16:26 435.000
UNISAT 6 28 Feb 09:08:03 09:12:34 79° 76° (ENE) 09:17:12 437.425
YUBILEINY 28 Feb 09:09:51 09:18:02 45° 88° (E) 09:26:12 435.215
ISS 28 Feb 09:11:38 09:12:22 11° 351° (N) 09:13:06 437.550
AIST 2D 28 Feb 09:20:36 09:21:14 10° 66° (ENE) 09:21:51 435.315
UWE-3 28 Feb 09:26:31 09:30:00 21° 293° (WNW) 09:33:26 435.000/436.395/437.385
EO-79 28 Feb 09:30:18 09:31:22 11° 63° (ENE) 09:32:26 145.935-145.965
PRISM 28 Feb 09:35:04 09:37:55 18° 266° (W) 09:40:47 437.425
DELFI C3 28 Feb 09:37:03 09:41:00 87° 103° (ESE) 09:44:55 145.870
ZACube-1 28 Feb 09:39:50 09:43:30 24° 292° (WNW) 09:47:05 437.345
NANOSAT C BR1 28 Feb 09:43:49 09:46:06 14° 65° (ENE) 09:48:24 145.865
POLYITAN 1 28 Feb 09:46:59 09:49:46 17° 66° (ENE) 09:52:34 437.675
QB50P2 28 Feb 09:49:47 09:52:51 20° 67° (ENE) 09:55:56 145.880/145.840
FO-29 28 Feb 10:32:30 10:39:24 48° 263° (W) 10:46:54 435.910
DUCHIFAT 1 28 Feb 10:47:32 10:51:42 68° 76° (ENE) 10:55:55 145.980
TIGRISAT 28 Feb 10:48:43 10:49:01 10° 271° (W) 10:49:17 435.000
ISS 28 Feb 10:48:53 10:50:02 11° 12° (NNE) 10:51:12 437.550
AIST 2D 28 Feb 10:50:36 10:54:01 45° 261° (W) 10:57:28 435.315
LO-87 28 Feb 10:53:24 10:57:02 87° 110° (ESE) 11:00:38 145.935 - 145.965
Oscar 19 28 Feb 10:56:15 10:56:58 10° 59° (ENE) 10:57:40 437.125/150
EO-79 28 Feb 11:02:21 11:06:33 66° 259° (WSW) 11:10:48 145.935-145.965
Tancredo 1 28 Feb 11:05:50 11:07:24 13° 16° (NNE) 11:08:57 437.200
YUBILEINY 28 Feb 11:06:50 11:14:52 39° 287° (WNW) 11:22:56 435.215
SPROUT 28 Feb 11:15:47 11:18:34 17° 93° (E) 11:21:20 437.525
NANOSAT C BR1 28 Feb 11:17:20 11:21:24 47° 261° (W) 11:25:30 145.865
POLYITAN 1 28 Feb 11:21:15 11:25:13 39° 262° (W) 11:29:15 437.675
ESTCUBE 1 28 Feb 11:21:33 11:26:02 79° 101° (E) 11:30:31 437.505/2401.250
QB50P2 28 Feb 11:24:33 11:28:24 33° 263° (W) 11:32:16 145.880/145.840
BUGSAT 1 28 Feb 11:30:50 11:34:52 72° 76° (ENE) 11:38:59 437.445
VELOX 1 28 Feb 11:32:24 11:36:21 31° 97° (E) 11:40:17 145.980
AO-85 28 Feb 11:42:43 11:46:26 39° 54° (NE) 11:50:11 145.980
Gurwin Techsat 1B 28 Feb 12:04:24 12:08:48 27° 67° (ENE) 12:13:13 435.225
ISS 28 Feb 12:24:14 12:27:17 34° 31° (NNE) 12:30:19 437.550
Oscar 19 28 Feb 12:30:18 12:35:27 85° 75° (ENE) 12:40:37 437.125/150
50 SAT 28 Feb 12:40:42 12:44:03 47° 285° (WNW) 12:47:23 437.505
Tancredo 1 28 Feb 12:41:07 12:44:16 49° 34° (NE) 12:47:24 437.200
AO-7 28 Feb 12:41:21 12:46:55 20° 52° (NE) 12:52:27 .
DX 1 28 Feb 12:48:24 12:52:47 85° 286° (WNW) 12:57:09 434.975-435.025
SPROUT 28 Feb 12:50:36 12:54:37 39° 288° (WNW) 12:58:37 437.525
UKube-1 28 Feb 12:53:29 12:57:50 78° 103° (ESE) 13:02:08 .
ESTCUBE 1 28 Feb 13:01:58 13:02:10 10° 299° (WNW) 13:02:22 437.505/2401.250
VELOX 1 28 Feb 13:09:10 13:12:37 23° 292° (WNW) 13:16:04 145.980
ITAMSAT 1 28 Feb 13:13:05 13:17:00 22° 64° (ENE) 13:20:54 435.822/435.867
BEESAT 2 28 Feb 13:13:52 13:15:31 12° 42° (NE) 13:17:10 435.950
AO-85 28 Feb 13:24:08 13:26:29 15° 249° (WSW) 13:28:51 145.980
Gurwin Techsat 1B 28 Feb 13:43:41 13:48:33 36° 262° (W) 13:53:27 435.225
ISS 28 Feb 14:00:53 14:03:38 25° 227° (SW) 14:06:22 437.550
BEESAT 3 28 Feb 14:03:37 14:07:39 82° 59° (ENE) 14:11:38 437.485
MOZHAYETS 4 28 Feb 14:14:24 14:16:31 13° 91° (E) 14:18:38
Tancredo 1 28 Feb 14:18:15 14:20:14 15° 230° (SW) 14:22:13 437.200
ITUPSAT 1 28 Feb 14:18:51 14:23:23 41° 99° (E) 14:27:53 437.325
BEESAT 28 Feb 14:22:58 14:27:35 46° 100° (E) 14:32:09 436.000
NO-84 28 Feb 14:23:10 14:24:46 13° 123° (ESE) 14:26:24 435.350 FM
AO-7 28 Feb 14:30:09 14:38:32 87° 72° (ENE) 14:46:57 .
BEESAT 2 28 Feb 14:49:45 14:53:49 78° 239° (WSW) 14:57:50 435.950
ITAMSAT 1 28 Feb 14:51:08 14:56:06 45° 261° (W) 15:01:08 435.822/435.867
PCSat 28 Feb 15:04:33 15:09:56 77° 116° (ESE) 15:15:23 145.827
RS-15 28 Feb 15:13:48 15:23:54 34° 104° (ESE) 15:34:17 29.354- 29.394
CUBESAT XI-V 28 Feb 15:24:12 15:25:19 11° 90° (E) 15:26:27 437.345
MOZHAYETS 4 28 Feb 15:49:30 15:54:01 56° 286° (WNW) 15:58:28
KKS-1 28 Feb 15:54:12 15:58:24 37° 99° (E) 16:02:33 437.445
ITUPSAT 1 28 Feb 15:57:24 16:00:55 21° 294° (WNW) 16:04:24 437.325
NO-84 28 Feb 15:58:57 16:01:58 43° 321° (NW) 16:05:15 435.350 FM
BEESAT 28 Feb 16:01:44 16:04:59 18° 295° (WNW) 16:08:13 436.000
